TITAN 3C TRANSTAGE DEB, 1835

Orbit data source: Space-Track

TITAN 3C TRANSTAGE DEB, 1835 is space debris in LEO originally from a launch on Fri, 15 Oct 1965 UTC launched from the Air Force Eastern Test Range (AFETR). Debris objects in space refer to the collection of defunct objects orbiting the Earth. Examples of debris include non-operational satellites, rocket bodies, and fragments generated from explosions, collisions, or faulty payload assembly.

Loading next visibility...
Identifier
1835, 1965-082EA
Orbit
LEO
Country
Flag of USUS
Related business
Manufacturer
Unknown
Mission
Spacecraft
Bus & Motor
Unknown
Mass
Unknown
Launch date (UTC)
1965-10-15 (60 years ago)
Launch vehicle
Unknown
Launch site
Air Force Eastern Test Range (AFETR)
Object type
Payload
Rocket body
Debris
Shape & HBR
Unknown shape, 0.2 m
Radar Cross Section
Small (<0.1 m²)

Expand to show TLE details & history
Last TLE update: 1 day ago

TLE from 1 day ago
0 TITAN 3C TRANSTAGE DEB
1  1835U 65082EA  26036.53377767  .00008037  00000-0  50597-3 0  9997
2  1835  32.3945 136.8083 0011794  41.0660 319.0889 15.08029255227470
Epoch: 2026-02-05T12:48Z
TLE epoch observation values (Epoch: 2026-02-05T12:48:38.390Z)
Latitude
-0.00004°
Longitude
168.96365°
Altitude
534.709 km
Speed
7.601 km/s
True Right ascension
09h 07m 13s
True Declination
0° 00' 00"
Sunlit
Object was in full shadow at epoch
Visualization orbit readout
Latitude
Unknown
Longitude
Unknown
Altitude
Unknown
Speed
Unknown
Apparent Right ascension
Unknown
Apparent Declination
Unknown
Sunlit
N/A
Visualization observer readout
Local Sidereal Time
15:01:19
Azimuth
Unknown
Elevation
Unknown
Doppler factor
Unknown
Orbital elements
Apogee altitude
554.019 km
Perigee altitude
537.686 km
Semi-major axis
6,923.989 km
Eccentricity
0.00118
Inclination
32.3945°
RAAN
136.8083°
Arg. of periapsis
41.066°
True anomaly
319.00029°
Mean anomaly
319.0889°
Eccentric anomaly
319.04461°
Mean motion
3.76711 °/min
Orbital period
95.56 mins
BSTAR
0.00050597

Documentation

Showing up to 5 results
|